This demonstration page uses our WeatherBlox Daily Observations layout. Learn more.

Left ArrowRight Arrow

39.12711, -84.51439

Hourly Observations for July 17, 2020

Temp ( °F °C ) Dew Point ( °F °C ) Humidity (%) Winds ( mph kmh ) Pressure ( in mb ) Visibility ( mi km ) Precip ( " mm )
12:53 am 00:53 Clear 71 21.7 68 20 90 90 Calm 30.10 1019 10 16 0.00 0.00
1:53 am 01:53 Clear 69 20.6 67 19.4 93 93 Calm 30.11 1020 10 16 0.00 0.00
2:53 am 02:53 Clear 68 20 67 19.4 96 96 Calm 30.12 1020 7 11 0.00 0.00
3:15 am 03:15 Clear with Mist and Fog 67 19.4 66 18.9 97 97 Calm 30.13 1020 2 3 0.00 0.00
3:23 am 03:23 Clear with Mist and Fog 68 20 67 19.4 96 96 Calm 30.13 1020 1 1 0.00 0.00
3:28 am 03:28 Clear with Mist and Fog 68 20 67 19.4 96 96 Calm 30.13 1020 2 3 0.00 0.00
3:38 am 03:38 Clear with Mist and Fog 68 20 67 19.4 96 96 Calm 30.13 1020 3 5 0.00 0.00
3:53 am 03:53 Clear 68 20 67 19.4 96 96 Calm 30.12 1020 9 14 0.00 0.00
4:53 am 04:53 Clear with Mist and Fog 67 19.4 66 18.9 97 97 Calm 30.13 1020 3 5 0.00 0.00
5:37 am 05:37 Mostly Cloudy 68 20 67 19.4 96 96 Calm 30.14 1021 8 13 0.00 0.00
5:53 am 05:53 Partly Cloudy with Mist and Fog 67 19.4 65 18.3 93 93 Calm 30.14 1021 3 5 0.00 0.00
6:32 am 06:32 Sunny with Mist and Fog 67 19.4 65 18.3 93 93 Calm 30.16 1021 2 3 0.00 0.00
6:42 am 06:42 Sunny with Fog 66 18.9 66 18.9 100 100 Calm 30.16 1021 1 1 0.00 0.00
6:53 am 06:53 Sunny with Patchy Fog 67 19.4 65 18.3 93 93 Calm 30.16 1022 7 11 0.00 0.00
7:53 am 07:53 Sunny 70 21.1 68 20 93 93 Calm 30.19 1022 7 11 0.00 0.00
8:53 am 08:53 Sunny 74 23.3 69 20.6 85 85 Calm 30.19 1023 10 16 0.00 0.00
9:53 am 09:53 Sunny 78 25.6 69 20.6 74 74 SE 3 6 30.19 1022 10 16 0.00 0.00
10:53 am 10:53 Partly Cloudy 81 27.2 67 19.4 62 62 ENE 5 7 30.19 1022 10 16 0.00 0.00
11:53 am 11:53 Sunny 83 28.3 65 18.3 55 55 Calm 30.18 1022 10 16 0.00 0.00
12:53 pm 12:53 Partly Cloudy 85 29.4 66 18.9 53 53 VRB 3 6 30.18 1022 10 16 0.00 0.00
1:53 pm 13:53 Partly Cloudy 86 30 66 18.9 51 51 Calm 30.16 1022 10 16 0.00 0.00
2:53 pm 14:53 Mostly Sunny 85 29.4 66 18.9 53 53 SSE 6 9 30.14 1021 10 16 0.00 0.00
3:53 pm 15:53 Mostly Sunny 87 30.6 66 18.9 50 50 Calm 30.12 1020 10 16 0.00 0.00
4:53 pm 16:53 Mostly Sunny 86 30 68 20 55 55 S 7 11 30.11 1020 10 16 0.00 0.00
5:53 pm 17:53 Sunny 86 30 67 19.4 53 53 SSW 7 11 30.09 1019 10 16 0.00 0.00
6:53 pm 18:53 Sunny 86 30 69 20.6 57 57 S 7 11 30.09 1019 10 16 0.00 0.00
7:53 pm 19:53 Sunny 84 28.9 67 19.4 57 57 S 3 6 30.08 1019 10 16 0.00 0.00
8:53 pm 20:53 Sunny 79 26.1 69 20.6 72 72 Calm 30.09 1019 10 16 0.00 0.00
9:53 pm 21:53 Clear 74 23.3 69 20.6 85 85 Calm 30.09 1019 10 16 0.00 0.00
10:53 pm 22:53 Clear 73 22.8 68 20 84 84 Calm 30.10 1019 10 16 0.00 0.00
11:53 pm 23:53 Clear 72 22.2 69 20.6 91 91 Calm 30.11 1020 10 16 0.00 0.00

Powered by AerisWeather